User: anonymous
Location: Natural Bridges National Monument
(37.6093°N, 109.9767°W)
Time: 19:03:08
(UTC-06:00)
Language:

USA 32 - Orbit

View from above orbital plane
View from above orbital plane
View from above satellite
View from above satellite

Ground track
Ground track

The orbit data is extracted from the following two-line orbital elements,

1 19460U 88078A   14236.83253945 0.00000040  00000-0  14582-4 0    07
2 19460  84.9876  98.2989 0002668 178.5475 181.4523 14.33192432    04
Epoch (UTC): 24 August 2014 19:58:51
Eccentricity: 0.0002668
inclination: 84.9876°
perigee height: 779 km
apogee height: 783 km
right ascension of ascending node: 98.2989°
argument of perigee: 178.5475°
revolutions per day: 14.33192432
mean anomaly at epoch: 181.4523°
orbit number at epoch: 0

The dashed part of the orbit path shows where the satellite is in the earth's shadow,  

DLR